CZ-6A DEB, 54267

Orbit data source: Space-Track

CZ-6A DEB, 54267 is space debris in SSO originally from a launch on Fri, 11 Nov 2022 UTC launched from the Taiyaun Space Center, China (TSC). Debris objects in space refer to the collection of defunct objects orbiting the Earth. Examples of debris include non-operational satellites, rocket bodies, and fragments generated from explosions, collisions, or faulty payload assembly.

Loading next visibility...
Identifier
54267, 2022-151J
Orbit
SSO
Country
Flag of CNCN / PRC
Related business
Manufacturer
SAST
Mission
Spacecraft
Bus & Motor
Unknown
Mass
Unknown
Launch date (UTC)
2022-11-11 (3 years ago)
Launch vehicle
Unknown
Launch site
Taiyaun Space Center, China (TSC)
Object type
Payload
Rocket body
Debris
Shape & HBR
Unknown shape, 0.2 m
Radar Cross Section
Small (<0.1 m²)

Expand to show TLE details & history
Last TLE update: 10 hours ago

TLE from 10 hours ago
0 CZ-6A DEB
1 54267U 22151J   25351.72421213  .00002502  00000-0  68029-3 0  9990
2 54267  98.8183  55.5941 0089282  99.7566 261.3721 14.46109807162969
Epoch: 2025-12-17T17:22Z
TLE epoch observation values (Epoch: 2025-12-17T17:22:51.928Z)
Latitude
-0.00004°
Longitude
68.28777°
Altitude
751.417 km
Speed
7.474 km/s
True Right ascension
03h 42m 22s
True Declination
0° 00' 00"
Sunlit
Object was in full shadow at epoch
Visualization orbit readout
Latitude
Unknown
Longitude
Unknown
Altitude
Unknown
Speed
Unknown
Apparent Right ascension
Unknown
Apparent Declination
Unknown
Sunlit
N/A
Visualization observer readout
Local Sidereal Time
02:13:10
Azimuth
Unknown
Elevation
Unknown
Doppler factor
Unknown
Orbital elements
Apogee altitude
799.024 km
Perigee altitude
671.999 km
Semi-major axis
7,113.649 km
Eccentricity
0.00893
Inclination
98.8183°
RAAN
55.5941°
Arg. of periapsis
99.7566°
True anomaly
260.36232°
Mean anomaly
261.3721°
Eccentric anomaly
260.86704°
Mean motion
3.61747 °/min
Orbital period
99.52 mins
BSTAR
0.00068029
Loading maneuver chart data...
Computing Atmospheric mass density...
Loading historical data...
Loading historical data...
Loading historical data...
Loading historical data...
Loading historical data...
Loading historical data...
Loading historical data...

Documentation

Showing up to 5 results
|